LOCATION_NAME,SAMPLE COLLECTION TIME,DOSE EQUIVALENT RATE (nSv/h),GAMMA COUNT RATE R02 (CPM),GAMMA COUNT RATE R03 (CPM),GAMMA COUNT RATE R04 (CPM),GAMMA COUNT RATE R05 (CPM),GAMMA COUNT RATE R06 (CPM),GAMMA COUNT RATE R07 (CPM),GAMMA COUNT RATE R08 (CPM),GAMMA COUNT RATE R09 (CPM),STATUS
NE: KEARNEY,01/01/2019 00:26:00,124.00,2072.00,1274.00,384.00,207.00,135.00,178.00,119.00,36.00,APPROVED
NE: KEARNEY,01/01/2019 01:26:00,117.00,2053.00,1244.00,376.00,201.00,133.00,175.00,115.00,36.00,APPROVED
NE: KEARNEY,01/01/2019 02:27:00,105.00,2008.00,1206.00,365.00,194.00,129.00,171.00,112.00,36.00,APPROVED
NE: KEARNEY,01/01/2019 03:27:00,98.00,1983.00,1173.00,357.00,186.00,125.00,163.00,110.00,35.00,APPROVED
NE: KEARNEY,01/01/2019 04:27:00,93.00,1970.00,1169.00,355.00,183.00,126.00,163.00,108.00,35.00,APPROVED
NE: KEARNEY,01/01/2019 05:27:00,88.00,1984.00,1165.00,354.00,185.00,124.00,160.00,107.00,34.00,APPROVED
NE: KEARNEY,01/01/2019 06:27:00,89.00,1978.00,1169.00,355.00,187.00,121.00,162.00,108.00,34.00,APPROVED
NE: KEARNEY,01/01/2019 07:28:00,88.00,1965.00,1176.00,350.00,185.00,125.00,161.00,106.00,35.00,APPROVED
NE: KEARNEY,01/01/2019 08:28:00,92.00,1979.00,1161.00,349.00,185.00,127.00,164.00,108.00,34.00,APPROVED
NE: KEARNEY,01/01/2019 09:28:00,92.00,1965.00,1159.00,352.00,182.00,126.00,162.00,107.00,33.00,APPROVED
NE: KEARNEY,01/01/2019 10:28:00,90.00,1962.00,1160.00,350.00,182.00,122.00,160.00,107.00,33.00,APPROVED
NE: KEARNEY,01/01/2019 11:29:00,90.00,1961.00,1143.00,344.00,180.00,123.00,162.00,108.00,34.00,APPROVED
NE: KEARNEY,01/01/2019 12:29:00,93.00,1956.00,1141.00,345.00,179.00,123.00,159.00,104.00,33.00,APPROVED
NE: KEARNEY,01/01/2019 13:29:00,91.00,1950.00,1155.00,344.00,181.00,122.00,159.00,110.00,33.00,APPROVED
NE: KEARNEY,01/01/2019 14:29:00,92.00,1957.00,1141.00,344.00,178.00,123.00,158.00,106.00,34.00,APPROVED
NE: KEARNEY,01/01/2019 15:30:00,88.00,1948.00,1144.00,344.00,180.00,119.00,160.00,107.00,35.00,APPROVED
NE: KEARNEY,01/01/2019 16:30:00,90.00,1958.00,1143.00,344.00,181.00,124.00,155.00,106.00,38.00,APPROVED
NE: KEARNEY,01/01/2019 17:30:00,89.00,1965.00,1154.00,345.00,183.00,123.00,160.00,107.00,39.00,APPROVED
NE: KEARNEY,01/01/2019 18:30:00,94.00,1956.00,1153.00,349.00,184.00,121.00,157.00,105.00,43.00,APPROVED
NE: KEARNEY,01/01/2019 19:30:00,95.00,1971.00,1171.00,346.00,189.00,121.00,159.00,103.00,45.00,APPROVED
NE: KEARNEY,01/01/2019 20:31:00,95.00,1968.00,1179.00,346.00,188.00,125.00,156.00,104.00,48.00,APPROVED
NE: KEARNEY,01/01/2019 21:31:00,93.00,1965.00,1165.00,353.00,188.00,119.00,159.00,100.00,49.00,APPROVED
NE: KEARNEY,01/01/2019 22:31:00,96.00,1972.00,1171.00,351.00,185.00,122.00,158.00,104.00,48.00,APPROVED
NE: KEARNEY,01/01/2019 23:31:00,90.00,1971.00,1175.00,346.00,188.00,122.00,158.00,103.00,50.00,APPROVED
NE: KEARNEY,01/02/2019 00:32:00,94.00,1974.00,1187.00,351.00,190.00,125.00,155.00,105.00,50.00,APPROVED
NE: KEARNEY,01/02/2019 01:32:00,91.00,1965.00,1183.00,343.00,186.00,121.00,160.00,103.00,51.00,APPROVED
NE: KEARNEY,01/02/2019 02:32:00,93.00,1965.00,1177.00,342.00,189.00,121.00,156.00,105.00,48.00,APPROVED
NE: KEARNEY,01/02/2019 03:32:00,93.00,1984.00,1174.00,347.00,190.00,124.00,160.00,107.00,46.00,APPROVED
NE: KEARNEY,01/02/2019 04:33:00,93.00,1991.00,1180.00,348.00,185.00,123.00,160.00,108.00,46.00,APPROVED
NE: KEARNEY,01/02/2019 05:33:00,98.00,1983.00,1180.00,350.00,189.00,123.00,159.00,109.00,44.00,APPROVED
NE: KEARNEY,01/02/2019 06:33:00,93.00,1984.00,1178.00,348.00,184.00,125.00,159.00,108.00,44.00,APPROVED
NE: KEARNEY,01/02/2019 07:33:00,94.00,2005.00,1191.00,359.00,189.00,126.00,160.00,109.00,42.00,APPROVED
NE: KEARNEY,01/02/2019 08:33:00,94.00,2032.00,1211.00,361.00,195.00,126.00,161.00,110.00,43.00,APPROVED
NE: KEARNEY,01/02/2019 09:34:00,95.00,2040.00,1231.00,359.00,197.00,125.00,162.00,111.00,42.00,APPROVED
NE: KEARNEY,01/02/2019 10:34:00,97.00,2081.00,1253.00,372.00,201.00,128.00,167.00,115.00,41.00,APPROVED
NE: KEARNEY,01/02/2019 11:34:00,101.00,2122.00,1300.00,383.00,208.00,132.00,174.00,119.00,40.00,APPROVED
NE: KEARNEY,01/02/2019 12:34:00,102.00,2181.00,1349.00,395.00,222.00,140.00,183.00,123.00,41.00,APPROVED
NE: KEARNEY,01/02/2019 13:35:00,103.00,2223.00,1394.00,409.00,230.00,141.00,192.00,126.00,43.00,APPROVED
NE: KEARNEY,01/02/2019 14:35:00,104.00,2231.00,1427.00,414.00,236.00,143.00,193.00,127.00,42.00,APPROVED
NE: KEARNEY,01/02/2019 15:35:00,111.00,2234.00,1428.00,413.00,242.00,145.00,195.00,127.00,49.00,APPROVED
NE: KEARNEY,01/02/2019 16:35:00,115.00,2232.00,1451.00,422.00,254.00,146.00,196.00,119.00,57.00,APPROVED
NE: KEARNEY,01/02/2019 17:36:00,115.00,2239.00,1463.00,416.00,255.00,149.00,196.00,121.00,61.00,APPROVED
NE: KEARNEY,01/02/2019 18:36:00,113.00,2255.00,1475.00,421.00,259.00,146.00,191.00,120.00,62.00,APPROVED
NE: KEARNEY,01/02/2019 19:36:00,113.00,2253.00,1464.00,421.00,261.00,148.00,191.00,121.00,61.00,APPROVED
NE: KEARNEY,01/02/2019 20:36:00,113.00,2254.00,1455.00,415.00,255.00,144.00,190.00,119.00,61.00,APPROVED
NE: KEARNEY,01/02/2019 21:36:00,119.00,2244.00,1453.00,409.00,253.00,143.00,190.00,118.00,60.00,APPROVED
NE: KEARNEY,01/02/2019 22:37:00,116.00,2273.00,1487.00,419.00,257.00,146.00,192.00,121.00,62.00,APPROVED
NE: KEARNEY,01/02/2019 23:37:00,114.00,2299.00,1508.00,425.00,263.00,150.00,198.00,123.00,62.00,APPROVED
NE: KEARNEY,01/03/2019 00:37:00,114.00,2308.00,1514.00,430.00,273.00,147.00,197.00,124.00,63.00,APPROVED
NE: KEARNEY,01/03/2019 01:37:00,113.00,2304.00,1516.00,432.00,269.00,150.00,200.00,127.00,59.00,APPROVED
NE: KEARNEY,01/03/2019 02:38:00,111.00,2299.00,1518.00,437.00,270.00,151.00,205.00,127.00,60.00,APPROVED
NE: KEARNEY,01/03/2019 03:38:00,109.00,2282.00,1530.00,438.00,271.00,152.00,208.00,128.00,60.00,APPROVED
NE: KEARNEY,01/03/2019 04:38:00,112.00,2288.00,1529.00,433.00,274.00,154.00,208.00,131.00,63.00,APPROVED
NE: KEARNEY,01/03/2019 05:38:00,106.00,2283.00,1525.00,441.00,276.00,154.00,205.00,129.00,60.00,APPROVED
NE: KEARNEY,01/03/2019 06:38:00,111.00,2274.00,1526.00,430.00,275.00,151.00,206.00,130.00,61.00,APPROVED
NE: KEARNEY,01/03/2019 07:39:00,110.00,2252.00,1505.00,430.00,265.00,151.00,200.00,124.00,62.00,APPROVED
NE: KEARNEY,01/03/2019 08:39:00,107.00,2234.00,1492.00,424.00,271.00,149.00,200.00,124.00,62.00,APPROVED
NE: KEARNEY,01/03/2019 09:39:00,110.00,2273.00,1511.00,434.00,271.00,153.00,201.00,124.00,62.00,APPROVED
NE: KEARNEY,01/03/2019 10:39:00,110.00,2280.00,1496.00,431.00,264.00,152.00,198.00,124.00,60.00,APPROVED
NE: KEARNEY,01/03/2019 11:40:00,108.00,2260.00,1484.00,422.00,256.00,150.00,197.00,126.00,56.00,APPROVED
NE: KEARNEY,01/03/2019 12:40:00,109.00,2252.00,1456.00,425.00,253.00,145.00,196.00,124.00,58.00,APPROVED
NE: KEARNEY,01/03/2019 13:40:00,113.00,2252.00,1461.00,414.00,254.00,148.00,194.00,123.00,61.00,APPROVED
NE: KEARNEY,01/03/2019 14:40:00,112.00,2222.00,1469.00,418.00,257.00,146.00,198.00,122.00,58.00,APPROVED
NE: KEARNEY,01/03/2019 15:41:00,116.00,2299.00,1526.00,441.00,269.00,150.00,200.00,126.00,61.00,APPROVED
NE: KEARNEY,01/03/2019 16:41:00,122.00,2280.00,1517.00,432.00,269.00,149.00,204.00,126.00,61.00,APPROVED
NE: KEARNEY,01/03/2019 22:42:00,125.00,2406.00,1687.00,470.00,322.00,166.00,228.00,137.00,69.00,APPROVED
NE: KEARNEY,01/03/2019 23:42:00,130.00,2454.00,1732.00,480.00,331.00,174.00,230.00,138.00,70.00,APPROVED
NE: KEARNEY,01/04/2019 00:43:00,128.00,2558.00,1815.00,496.00,351.00,178.00,242.00,147.00,73.00,APPROVED
NE: KEARNEY,01/04/2019 01:43:00,126.00,2606.00,1864.00,516.00,365.00,183.00,253.00,150.00,73.00,APPROVED
NE: KEARNEY,01/04/2019 02:43:00,126.00,2593.00,1853.00,515.00,360.00,181.00,248.00,151.00,72.00,APPROVED
NE: KEARNEY,01/04/2019 03:43:00,118.00,2475.00,1780.00,494.00,347.00,173.00,242.00,146.00,72.00,APPROVED
NE: KEARNEY,01/04/2019 04:43:00,122.00,2396.00,1677.00,468.00,320.00,165.00,224.00,139.00,68.00,APPROVED
NE: KEARNEY,01/04/2019 05:44:00,120.00,2363.00,1606.00,455.00,297.00,160.00,211.00,134.00,67.00,APPROVED
NE: KEARNEY,01/04/2019 06:44:00,120.00,2371.00,1603.00,450.00,288.00,155.00,215.00,131.00,64.00,APPROVED
NE: KEARNEY,01/04/2019 07:44:00,120.00,2340.00,1591.00,442.00,291.00,158.00,210.00,129.00,67.00,APPROVED
NE: KEARNEY,01/04/2019 08:44:00,117.00,2325.00,1596.00,441.00,292.00,155.00,210.00,128.00,64.00,APPROVED
NE: KEARNEY,01/04/2019 09:45:00,117.00,2351.00,1623.00,458.00,301.00,162.00,217.00,133.00,65.00,APPROVED
NE: KEARNEY,01/04/2019 10:45:00,118.00,2387.00,1669.00,466.00,317.00,167.00,225.00,137.00,67.00,APPROVED
NE: KEARNEY,01/04/2019 11:45:00,119.00,2360.00,1635.00,463.00,311.00,163.00,219.00,136.00,67.00,APPROVED
NE: KEARNEY,01/04/2019 12:45:00,117.00,2290.00,1549.00,436.00,283.00,153.00,211.00,130.00,65.00,APPROVED
NE: KEARNEY,01/04/2019 13:46:00,116.00,2223.00,1491.00,421.00,266.00,149.00,199.00,124.00,64.00,APPROVED
NE: KEARNEY,01/04/2019 14:46:00,115.00,2234.00,1474.00,415.00,259.00,146.00,195.00,121.00,64.00,APPROVED
NE: KEARNEY,01/04/2019 15:46:00,117.00,2215.00,1462.00,413.00,255.00,143.00,195.00,118.00,62.00,APPROVED
NE: KEARNEY,01/04/2019 16:46:00,122.00,2211.00,1448.00,410.00,252.00,142.00,192.00,121.00,63.00,APPROVED
NE: KEARNEY,01/04/2019 17:46:00,118.00,2223.00,1441.00,410.00,248.00,141.00,187.00,118.00,61.00,APPROVED
NE: KEARNEY,01/04/2019 18:47:00,123.00,2199.00,1416.00,400.00,245.00,140.00,186.00,117.00,60.00,APPROVED
NE: KEARNEY,01/04/2019 19:47:00,124.00,2190.00,1422.00,407.00,247.00,140.00,184.00,113.00,54.00,APPROVED
NE: KEARNEY,01/04/2019 20:47:00,124.00,2187.00,1417.00,396.00,243.00,142.00,185.00,118.00,55.00,APPROVED
NE: KEARNEY,01/04/2019 21:47:00,122.00,2203.00,1413.00,400.00,244.00,139.00,182.00,114.00,56.00,APPROVED
NE: KEARNEY,01/04/2019 22:48:00,118.00,2179.00,1392.00,396.00,241.00,139.00,184.00,113.00,57.00,APPROVED
NE: KEARNEY,01/04/2019 23:48:00,117.00,2167.00,1389.00,394.00,235.00,138.00,184.00,113.00,57.00,APPROVED
NE: KEARNEY,01/05/2019 00:48:00,114.00,2173.00,1387.00,389.00,237.00,138.00,183.00,112.00,58.00,APPROVED
NE: KEARNEY,01/05/2019 01:48:00,113.00,2174.00,1390.00,394.00,232.00,135.00,182.00,114.00,59.00,APPROVED
NE: KEARNEY,01/05/2019 02:49:00,119.00,2177.00,1390.00,391.00,235.00,136.00,182.00,114.00,59.00,APPROVED
NE: KEARNEY,01/05/2019 03:49:00,114.00,2168.00,1391.00,393.00,240.00,136.00,182.00,112.00,58.00,APPROVED
NE: KEARNEY,01/05/2019 04:49:00,117.00,2177.00,1397.00,393.00,240.00,138.00,182.00,113.00,61.00,APPROVED
NE: KEARNEY,01/05/2019 05:49:00,113.00,2167.00,1379.00,400.00,237.00,136.00,181.00,113.00,60.00,APPROVED
NE: KEARNEY,01/05/2019 06:49:00,113.00,2169.00,1400.00,400.00,239.00,137.00,186.00,115.00,61.00,APPROVED
NE: KEARNEY,01/05/2019 07:50:00,113.00,2192.00,1423.00,407.00,245.00,141.00,183.00,117.00,62.00,APPROVED
NE: KEARNEY,01/05/2019 08:50:00,114.00,2182.00,1410.00,411.00,253.00,142.00,190.00,119.00,59.00,APPROVED
NE: KEARNEY,01/05/2019 09:50:00,116.00,2185.00,1415.00,403.00,249.00,143.00,184.00,119.00,62.00,APPROVED
NE: KEARNEY,01/05/2019 10:50:00,116.00,2192.00,1423.00,403.00,252.00,141.00,190.00,118.00,63.00,APPROVED
NE: KEARNEY,01/05/2019 11:51:00,116.00,2190.00,1442.00,404.00,251.00,142.00,194.00,118.00,63.00,APPROVED
NE: KEARNEY,01/05/2019 12:51:00,108.00,2213.00,1449.00,418.00,258.00,146.00,188.00,121.00,62.00,APPROVED
NE: KEARNEY,01/05/2019 13:51:00,113.00,2224.00,1447.00,410.00,250.00,143.00,189.00,118.00,60.00,APPROVED
NE: KEARNEY,01/05/2019 14:51:00,117.00,2224.00,1448.00,411.00,252.00,143.00,192.00,117.00,63.00,APPROVED
NE: KEARNEY,01/05/2019 15:52:00,121.00,2211.00,1441.00,408.00,250.00,144.00,190.00,118.00,61.00,APPROVED
NE: KEARNEY,01/05/2019 16:52:00,121.00,2213.00,1431.00,405.00,249.00,145.00,185.00,117.00,61.00,APPROVED
NE: KEARNEY,01/05/2019 17:52:00,122.00,2206.00,1452.00,403.00,254.00,142.00,186.00,120.00,57.00,APPROVED
NE: KEARNEY,01/05/2019 18:52:00,124.00,2248.00,1463.00,412.00,259.00,145.00,189.00,118.00,56.00,APPROVED
NE: KEARNEY,01/05/2019 19:52:00,122.00,2266.00,1476.00,420.00,259.00,146.00,193.00,119.00,57.00,APPROVED
NE: KEARNEY,01/05/2019 20:53:00,125.00,2242.00,1474.00,420.00,259.00,148.00,194.00,116.00,54.00,APPROVED
NE: KEARNEY,01/05/2019 21:53:00,119.00,2217.00,1456.00,411.00,259.00,144.00,192.00,119.00,54.00,APPROVED
NE: KEARNEY,01/05/2019 22:53:00,116.00,2213.00,1448.00,405.00,257.00,141.00,188.00,118.00,54.00,APPROVED
NE: KEARNEY,01/05/2019 23:53:00,116.00,2207.00,1437.00,403.00,248.00,145.00,188.00,116.00,57.00,APPROVED
NE: KEARNEY,01/06/2019 00:54:00,116.00,2218.00,1423.00,404.00,249.00,141.00,186.00,115.00,57.00,APPROVED
NE: KEARNEY,01/06/2019 01:54:00,110.00,2200.00,1401.00,392.00,238.00,138.00,183.00,112.00,57.00,APPROVED
NE: KEARNEY,01/06/2019 02:54:00,111.00,2190.00,1400.00,404.00,239.00,139.00,183.00,113.00,59.00,APPROVED
NE: KEARNEY,01/06/2019 03:54:00,112.00,2197.00,1392.00,396.00,237.00,141.00,181.00,117.00,57.00,APPROVED
NE: KEARNEY,01/06/2019 04:55:00,113.00,2198.00,1396.00,398.00,242.00,140.00,184.00,114.00,60.00,APPROVED
NE: KEARNEY,01/06/2019 05:55:00,110.00,2214.00,1426.00,401.00,244.00,140.00,186.00,112.00,59.00,APPROVED
NE: KEARNEY,01/06/2019 06:55:00,112.00,2212.00,1435.00,410.00,249.00,141.00,189.00,117.00,60.00,APPROVED
NE: KEARNEY,01/06/2019 07:55:00,113.00,2256.00,1453.00,412.00,250.00,143.00,195.00,119.00,62.00,APPROVED
NE: KEARNEY,01/06/2019 08:55:00,111.00,2261.00,1475.00,417.00,262.00,147.00,193.00,124.00,61.00,APPROVED
NE: KEARNEY,01/06/2019 09:56:00,117.00,2287.00,1499.00,427.00,266.00,149.00,194.00,122.00,61.00,APPROVED
NE: KEARNEY,01/06/2019 10:56:00,116.00,2307.00,1524.00,428.00,270.00,152.00,200.00,125.00,63.00,APPROVED
NE: KEARNEY,01/06/2019 11:56:00,116.00,2343.00,1561.00,433.00,278.00,152.00,204.00,127.00,62.00,APPROVED
NE: KEARNEY,01/06/2019 12:56:00,117.00,2367.00,1578.00,446.00,285.00,158.00,210.00,127.00,65.00,APPROVED
NE: KEARNEY,01/06/2019 13:57:00,121.00,2403.00,1620.00,449.00,293.00,158.00,213.00,127.00,66.00,APPROVED
NE: KEARNEY,01/06/2019 14:57:00,116.00,2428.00,1659.00,458.00,308.00,164.00,217.00,132.00,70.00,APPROVED
NE: KEARNEY,01/06/2019 15:57:00,122.00,2452.00,1677.00,470.00,318.00,166.00,225.00,137.00,68.00,APPROVED
NE: KEARNEY,01/06/2019 16:57:00,120.00,2471.00,1714.00,469.00,320.00,166.00,227.00,136.00,71.00,APPROVED
NE: KEARNEY,01/06/2019 17:58:00,128.00,2464.00,1698.00,473.00,315.00,167.00,225.00,137.00,67.00,APPROVED
NE: KEARNEY,01/06/2019 18:32:00,130.00,2451.00,1693.00,469.00,322.00,164.00,227.00,136.00,67.00,APPROVED
NE: KEARNEY,01/06/2019 19:37:00,128.00,2314.00,1460.00,407.00,236.00,140.00,182.00,115.00,59.00,APPROVED
NE: KEARNEY,01/06/2019 20:37:00,126.00,2363.00,1541.00,430.00,271.00,150.00,201.00,125.00,62.00,APPROVED
NE: KEARNEY,01/06/2019 21:38:00,130.00,2450.00,1642.00,451.00,299.00,156.00,210.00,129.00,64.00,APPROVED
NE: KEARNEY,01/06/2019 22:38:00,129.00,2527.00,1747.00,475.00,325.00,166.00,230.00,137.00,68.00,APPROVED
NE: KEARNEY,01/06/2019 23:38:00,127.00,2536.00,1787.00,485.00,344.00,172.00,238.00,143.00,70.00,APPROVED
NE: KEARNEY,01/07/2019 00:38:00,127.00,2517.00,1742.00,476.00,330.00,173.00,233.00,142.00,73.00,APPROVED
NE: KEARNEY,01/07/2019 01:38:00,125.00,2505.00,1759.00,482.00,340.00,174.00,237.00,144.00,69.00,APPROVED
NE: KEARNEY,01/07/2019 02:39:00,125.00,2538.00,1786.00,493.00,350.00,176.00,241.00,145.00,70.00,APPROVED
NE: KEARNEY,01/07/2019 03:39:00,125.00,2556.00,1810.00,496.00,355.00,178.00,248.00,149.00,72.00,APPROVED
NE: KEARNEY,01/07/2019 04:39:00,124.00,2563.00,1830.00,502.00,365.00,180.00,250.00,148.00,73.00,APPROVED
NE: KEARNEY,01/07/2019 05:39:00,122.00,2576.00,1863.00,510.00,372.00,186.00,249.00,150.00,73.00,APPROVED
NE: KEARNEY,01/07/2019 06:40:00,128.00,2507.00,1809.00,497.00,364.00,179.00,249.00,147.00,74.00,APPROVED
NE: KEARNEY,01/07/2019 07:40:00,125.00,2472.00,1746.00,486.00,343.00,174.00,240.00,141.00,70.00,APPROVED
NE: KEARNEY,01/07/2019 08:40:00,129.00,2406.00,1658.00,459.00,310.00,167.00,222.00,133.00,68.00,APPROVED
NE: KEARNEY,01/07/2019 09:40:00,123.00,2324.00,1559.00,437.00,284.00,155.00,205.00,126.00,63.00,APPROVED
NE: KEARNEY,01/07/2019 10:41:00,121.00,2317.00,1533.00,427.00,273.00,150.00,201.00,123.00,61.00,APPROVED
NE: KEARNEY,01/07/2019 11:41:00,124.00,2323.00,1534.00,429.00,273.00,149.00,201.00,123.00,62.00,APPROVED
NE: KEARNEY,01/07/2019 12:41:00,125.00,2325.00,1537.00,430.00,275.00,152.00,201.00,123.00,64.00,APPROVED
NE: KEARNEY,01/07/2019 13:41:00,129.00,2334.00,1539.00,430.00,272.00,151.00,199.00,124.00,62.00,APPROVED
NE: KEARNEY,01/07/2019 14:41:00,126.00,2317.00,1535.00,430.00,270.00,154.00,199.00,123.00,63.00,APPROVED
NE: KEARNEY,01/07/2019 15:42:00,120.00,2283.00,1521.00,421.00,269.00,148.00,196.00,123.00,62.00,APPROVED
NE: KEARNEY,01/07/2019 16:42:00,121.00,2280.00,1501.00,424.00,270.00,149.00,201.00,120.00,61.00,APPROVED
NE: KEARNEY,01/07/2019 17:42:00,122.00,2263.00,1493.00,417.00,269.00,145.00,197.00,121.00,60.00,APPROVED
NE: KEARNEY,01/07/2019 18:42:00,121.00,2226.00,1449.00,406.00,256.00,143.00,191.00,119.00,62.00,APPROVED
NE: KEARNEY,01/07/2019 19:43:00,119.00,2192.00,1401.00,397.00,240.00,140.00,186.00,113.00,60.00,APPROVED
NE: KEARNEY,01/07/2019 20:43:00,118.00,2177.00,1383.00,389.00,234.00,135.00,180.00,113.00,59.00,APPROVED
NE: KEARNEY,01/07/2019 21:43:00,118.00,2162.00,1359.00,388.00,227.00,135.00,176.00,111.00,58.00,APPROVED
NE: KEARNEY,01/07/2019 22:43:00,124.00,2158.00,1358.00,387.00,228.00,138.00,177.00,111.00,57.00,APPROVED
NE: KEARNEY,01/07/2019 23:44:00,119.00,2158.00,1352.00,381.00,227.00,135.00,176.00,110.00,57.00,APPROVED
NE: KEARNEY,01/08/2019 00:44:00,115.00,2160.00,1370.00,388.00,228.00,138.00,176.00,111.00,58.00,APPROVED
NE: KEARNEY,01/08/2019 01:44:00,114.00,2169.00,1359.00,385.00,222.00,133.00,176.00,110.00,58.00,APPROVED
NE: KEARNEY,01/08/2019 02:44:00,113.00,2183.00,1372.00,389.00,226.00,138.00,179.00,111.00,59.00,APPROVED
NE: KEARNEY,01/08/2019 03:44:00,113.00,2169.00,1367.00,389.00,229.00,134.00,177.00,114.00,59.00,APPROVED
NE: KEARNEY,01/08/2019 04:45:00,109.00,2146.00,1346.00,384.00,226.00,135.00,177.00,110.00,59.00,APPROVED
NE: KEARNEY,01/08/2019 05:45:00,107.00,2135.00,1328.00,384.00,224.00,135.00,175.00,109.00,58.00,APPROVED
NE: KEARNEY,01/08/2019 06:45:00,114.00,2139.00,1339.00,379.00,221.00,134.00,175.00,111.00,58.00,APPROVED
NE: KEARNEY,01/08/2019 07:45:00,110.00,2161.00,1359.00,392.00,224.00,133.00,177.00,111.00,59.00,APPROVED
NE: KEARNEY,01/08/2019 08:46:00,112.00,2143.00,1349.00,379.00,224.00,136.00,176.00,110.00,59.00,APPROVED
NE: KEARNEY,01/08/2019 09:46:00,112.00,2138.00,1330.00,381.00,219.00,130.00,173.00,109.00,59.00,APPROVED
NE: KEARNEY,01/08/2019 10:46:00,107.00,2132.00,1323.00,380.00,217.00,131.00,171.00,108.00,59.00,APPROVED
NE: KEARNEY,01/08/2019 11:46:00,107.00,2097.00,1303.00,374.00,215.00,130.00,167.00,106.00,57.00,APPROVED
NE: KEARNEY,01/08/2019 12:46:00,107.00,2090.00,1283.00,363.00,205.00,130.00,163.00,107.00,55.00,APPROVED
NE: KEARNEY,01/08/2019 13:47:00,111.00,2072.00,1268.00,364.00,201.00,127.00,165.00,104.00,57.00,APPROVED
NE: KEARNEY,01/08/2019 14:47:00,106.00,2069.00,1260.00,365.00,204.00,128.00,166.00,106.00,56.00,APPROVED
NE: KEARNEY,01/08/2019 15:47:00,107.00,2072.00,1265.00,362.00,206.00,125.00,166.00,106.00,57.00,APPROVED
NE: KEARNEY,01/08/2019 16:47:00,112.00,2076.00,1275.00,365.00,207.00,126.00,166.00,106.00,56.00,APPROVED
NE: KEARNEY,01/08/2019 17:48:00,109.00,2081.00,1283.00,367.00,213.00,128.00,165.00,105.00,56.00,APPROVED
NE: KEARNEY,01/08/2019 18:48:00,108.00,2087.00,1286.00,370.00,209.00,130.00,167.00,105.00,56.00,APPROVED
NE: KEARNEY,01/08/2019 19:48:00,112.00,2076.00,1281.00,368.00,210.00,128.00,167.00,108.00,56.00,APPROVED
NE: KEARNEY,01/08/2019 20:48:00,111.00,2071.00,1276.00,366.00,209.00,129.00,166.00,101.00,55.00,APPROVED
NE: KEARNEY,01/08/2019 21:49:00,112.00,2064.00,1261.00,363.00,207.00,125.00,163.00,103.00,53.00,APPROVED
NE: KEARNEY,01/08/2019 22:49:00,108.00,2050.00,1249.00,363.00,201.00,127.00,166.00,105.00,55.00,APPROVED
NE: KEARNEY,01/08/2019 23:49:00,105.00,2060.00,1252.00,362.00,200.00,127.00,162.00,106.00,54.00,APPROVED
NE: KEARNEY,01/09/2019 00:49:00,106.00,2052.00,1246.00,361.00,200.00,125.00,161.00,105.00,54.00,APPROVED
NE: KEARNEY,01/09/2019 01:49:00,107.00,2060.00,1248.00,359.00,203.00,123.00,161.00,106.00,56.00,APPROVED
NE: KEARNEY,01/09/2019 02:50:00,107.00,2062.00,1236.00,354.00,199.00,128.00,160.00,103.00,53.00,APPROVED
NE: KEARNEY,01/09/2019 03:50:00,104.00,2055.00,1251.00,360.00,196.00,126.00,160.00,102.00,56.00,APPROVED
NE: KEARNEY,01/09/2019 04:50:00,99.00,2052.00,1240.00,361.00,195.00,127.00,160.00,103.00,55.00,APPROVED
NE: KEARNEY,01/09/2019 05:50:00,106.00,2053.00,1243.00,360.00,198.00,123.00,160.00,104.00,55.00,APPROVED
NE: KEARNEY,01/09/2019 06:51:00,102.00,2053.00,1233.00,360.00,199.00,123.00,161.00,102.00,54.00,APPROVED
NE: KEARNEY,01/09/2019 07:51:00,102.00,2063.00,1238.00,359.00,199.00,127.00,162.00,104.00,54.00,APPROVED
NE: KEARNEY,01/09/2019 08:51:00,100.00,2056.00,1245.00,362.00,202.00,127.00,164.00,105.00,55.00,APPROVED
NE: KEARNEY,01/09/2019 09:51:00,101.00,2072.00,1264.00,365.00,204.00,126.00,164.00,104.00,55.00,APPROVED
NE: KEARNEY,01/09/2019 10:52:00,101.00,2072.00,1266.00,368.00,202.00,130.00,167.00,106.00,53.00,APPROVED
NE: KEARNEY,01/09/2019 11:52:00,100.00,2078.00,1272.00,368.00,207.00,130.00,166.00,106.00,54.00,APPROVED
NE: KEARNEY,01/09/2019 12:52:00,98.00,2098.00,1260.00,370.00,203.00,127.00,165.00,106.00,53.00,APPROVED
NE: KEARNEY,01/09/2019 13:52:00,100.00,2088.00,1275.00,371.00,208.00,129.00,163.00,107.00,55.00,APPROVED
NE: KEARNEY,01/09/2019 14:52:00,104.00,2087.00,1274.00,367.00,208.00,126.00,165.00,105.00,56.00,APPROVED
NE: KEARNEY,01/09/2019 15:53:00,107.00,2100.00,1280.00,370.00,210.00,127.00,168.00,108.00,57.00,APPROVED
NE: KEARNEY,01/09/2019 16:53:00,105.00,2087.00,1297.00,369.00,210.00,130.00,170.00,109.00,55.00,APPROVED
NE: KEARNEY,01/09/2019 17:53:00,108.00,2090.00,1283.00,374.00,217.00,130.00,169.00,107.00,57.00,APPROVED
NE: KEARNEY,01/09/2019 18:53:00,113.00,2096.00,1292.00,373.00,212.00,133.00,171.00,105.00,56.00,APPROVED
NE: KEARNEY,01/09/2019 19:54:00,110.00,2092.00,1294.00,367.00,209.00,133.00,169.00,106.00,55.00,APPROVED
NE: KEARNEY,01/09/2019 20:54:00,111.00,2097.00,1292.00,371.00,210.00,130.00,165.00,108.00,55.00,APPROVED
NE: KEARNEY,01/09/2019 21:54:00,109.00,2091.00,1284.00,369.00,209.00,131.00,169.00,106.00,56.00,APPROVED
NE: KEARNEY,01/09/2019 22:54:00,109.00,2100.00,1285.00,370.00,210.00,127.00,167.00,104.00,56.00,APPROVED
NE: KEARNEY,01/09/2019 23:54:00,112.00,2103.00,1299.00,372.00,211.00,132.00,167.00,105.00,57.00,APPROVED
NE: KEARNEY,01/10/2019 00:55:00,107.00,2112.00,1289.00,371.00,213.00,130.00,171.00,108.00,56.00,APPROVED
NE: KEARNEY,01/10/2019 01:55:00,105.00,2120.00,1303.00,377.00,212.00,132.00,169.00,107.00,57.00,APPROVED
NE: KEARNEY,01/10/2019 02:55:00,106.00,2143.00,1324.00,380.00,219.00,131.00,171.00,108.00,56.00,APPROVED
NE: KEARNEY,01/10/2019 03:55:00,105.00,2132.00,1330.00,380.00,221.00,134.00,172.00,108.00,58.00,APPROVED
NE: KEARNEY,01/10/2019 04:56:00,104.00,2142.00,1337.00,379.00,221.00,134.00,173.00,113.00,58.00,APPROVED
NE: KEARNEY,01/10/2019 05:56:00,106.00,2153.00,1346.00,387.00,221.00,137.00,177.00,110.00,58.00,APPROVED
NE: KEARNEY,01/10/2019 06:56:00,106.00,2154.00,1350.00,383.00,223.00,134.00,173.00,111.00,56.00,APPROVED
NE: KEARNEY,01/10/2019 07:56:00,106.00,2159.00,1343.00,387.00,224.00,135.00,177.00,110.00,58.00,APPROVED
NE: KEARNEY,01/10/2019 08:57:00,106.00,2168.00,1352.00,386.00,229.00,137.00,179.00,114.00,56.00,APPROVED
NE: KEARNEY,01/10/2019 09:57:00,107.00,2168.00,1359.00,389.00,227.00,137.00,178.00,111.00,57.00,APPROVED
NE: KEARNEY,01/10/2019 10:57:00,108.00,2165.00,1358.00,391.00,227.00,139.00,178.00,115.00,57.00,APPROVED
NE: KEARNEY,01/10/2019 11:57:00,106.00,2171.00,1364.00,391.00,227.00,137.00,180.00,112.00,56.00,APPROVED
NE: KEARNEY,01/10/2019 12:57:00,106.00,2196.00,1375.00,393.00,229.00,137.00,182.00,113.00,59.00,APPROVED
NE: KEARNEY,01/10/2019 13:58:00,109.00,2192.00,1380.00,396.00,235.00,139.00,181.00,115.00,59.00,APPROVED
NE: KEARNEY,01/10/2019 14:58:00,112.00,2199.00,1385.00,399.00,236.00,139.00,183.00,115.00,58.00,APPROVED